Location: Unspecified
(0.0000°N, 0.0000°E)
Time: 22:59:26
(UTC+00:00)

GONETS D1M 1 - Pass Details

Date: 17 May 2026
Orbit: 1435 x 1447 km, 82.5° (Epoch: 7 June)

Event Time Altitude Azimuth Distance (km) Brightness Sun altitude
Rises 18:38:07 0° 341° (NNW) 4,518 9.9 -9.8°
Reaches altitude 10° 18:41:08 10° 335° (NNW) 3,541 9.4 -10.5°
Maximum altitude 18:48:57 42° 267° (W) 1,940 7.9 -12.4°
Drops below altitude 10° 18:56:49 10° 199° (SSW) 3,545 8.7 -14.2°
Sets 18:59:53 0° 192° (SSW) 4,523 9.2 -14.9°
